Spearman, TX

12:59 PM CDT on September 27, 2016 (GMT -0500)
Pampa / Mesa Vista

Weather History for KBPC - December, 2013

Change the Weather History Date:

Wednesday, December 18, 2013

  Actual Average (KBGD) Record (KBGD)
Temperature  
Mean Temperature 50 °F 38 °F  
Max Temperature 73 °F 49 °F 74 °F (1978)
Min Temperature 28 °F 26 °F 3 °F (1983)
Degree Days  
Heating Degree Days 14 27  
Month to date heating degree days 459  
Since 1 July heating degree days 1176  
Cooling Degree Days 0 0  
Month to date cooling degree days 0  
Year to date cooling degree days 1839  
Moisture  
Dew Point 23 °F    
Average Humidity 41    
Maximum Humidity 80    
Minimum Humidity 13    
Precipitation  
Precipitation 0.00 in 0.01 in 0.84 in (1995)
Month to date precipitation 0.33  
Year to date precipitation 21.28  
Snow  
Snow 0.00 in - - ()
Month to date snowfall  
Since 1 July snowfall  
Snow Depth -    
Sea Level Pressure  
Sea Level Pressure 29.95 in    
Wind  
Wind Speed 11 mph (SW)    
Max Wind Speed 30 mph    
Max Gust Speed 40 mph    
Visibility 10 miles    
Events      
T = Trace of Precipitation, MM = Missing Value Source: NWS Daily Summary

Daily Weather History Graph

Daily Weather History Graph

Search for Another Location

Airport or City:

Trip Planner

Search our weather history database for the weather conditions in past years. The results will help you decide how hot, cold, wet, or windy it might be!

Date:

Astronomy

Dec. 18, 2013 Rise Set
Actual Time 7:49 AM CST 5:32 PM CST
Civil Twilight 7:20 AM CST 6:01 PM CST
Nautical Twilight 6:48 AM CST 6:33 PM CST
Astronomical Twilight 6:17 AM CST 7:04 PM CST
Moon 7:03 PM CST (12/18) 8:32 AM CST (12/18)
Length of Visible Light 10h 40m
Length of Day
9h 43m
Full, 98% of the Moon is Illuminated
Dec 18
Full
Dec 25
Last Quarter
Jan 1
New
Jan 7
First Quarter
Jan 15
Full

Hourly Weather History & Observations

Time (CST) Temp. Windchill Dew Point Humidity Pressure Visibility Wind Dir Wind Speed Gust Speed Precip Events Conditions
12:15 AM 32.0 °F - 23.0 °F 69% 30.23 in 10.0 mi North - - N/A   Clear
12:35 AM 33.8 °F 27.7 °F 23.0 °F 65% 30.23 in 10.0 mi WSW 6.9 mph - N/A   Clear
12:55 AM 35.6 °F 31.7 °F 23.0 °F 60% 30.22 in 10.0 mi WSW 4.6 mph - N/A   Clear
1:15 AM 33.8 °F 30.8 °F 23.0 °F 65% 30.20 in 10.0 mi SW 3.5 mph - N/A   Clear
1:35 AM 32.0 °F 28.7 °F 23.0 °F 69% 30.19 in 10.0 mi SSW 3.5 mph - N/A   Clear
1:55 AM 32.0 °F - 23.0 °F 69% 30.18 in 10.0 mi Calm Calm - N/A   Clear
2:15 AM 32.0 °F 24.8 °F 24.8 °F 75% 30.17 in 10.0 mi WSW 8.1 mph - N/A   Clear
2:35 AM 35.6 °F 28.6 °F 26.6 °F 70% 30.17 in 10.0 mi SW 9.2 mph - N/A   Clear
2:55 AM 35.6 °F 28.6 °F 26.6 °F 70% 30.16 in 10.0 mi SW 9.2 mph - N/A   Clear
3:15 AM 35.6 °F 28.0 °F 26.6 °F 70% 30.16 in 10.0 mi SW 10.4 mph - N/A   Clear
3:35 AM 33.8 °F 26.4 °F 26.6 °F 75% 30.15 in 10.0 mi SW 9.2 mph - N/A   Clear
3:55 AM 35.6 °F 28.0 °F 26.6 °F 70% 30.14 in 10.0 mi SSW 10.4 mph - N/A   Clear
4:15 AM 37.4 °F 30.3 °F 26.6 °F 65% 30.13 in 10.0 mi SW 10.4 mph - N/A   Clear
4:35 AM 35.6 °F 27.5 °F 26.6 °F 70% 30.12 in 10.0 mi SW 11.5 mph - N/A   Clear
4:55 AM 37.4 °F 29.3 °F 26.6 °F 65% 30.12 in 10.0 mi SW 12.7 mph - N/A   Clear
5:15 AM 37.4 °F 30.3 °F 26.6 °F 65% 30.11 in 10.0 mi SSW 10.4 mph - N/A   Clear
5:35 AM 37.4 °F 29.8 °F 26.6 °F 65% 30.10 in 10.0 mi SSW 11.5 mph - N/A   Clear
5:55 AM 37.4 °F 30.3 °F 26.6 °F 65% 30.10 in 10.0 mi SSW 10.4 mph - N/A   Clear
6:15 AM 37.4 °F 30.3 °F 26.6 °F 65% 30.09 in 10.0 mi SSW 10.4 mph - N/A   Clear
6:35 AM 35.6 °F 29.2 °F 26.6 °F 70% 30.07 in 10.0 mi SSW 8.1 mph - N/A   Clear
6:55 AM 35.6 °F 32.8 °F 24.8 °F 65% 30.07 in 10.0 mi SSW 3.5 mph - N/A   Clear
7:15 AM 35.6 °F 30.7 °F 24.8 °F 65% 30.06 in 10.0 mi SW 5.8 mph - N/A   Clear
7:35 AM 35.6 °F - 24.8 °F 65% 30.06 in 10.0 mi Calm Calm - N/A   Clear
7:55 AM 28.4 °F - 23.0 °F 80% 30.06 in 10.0 mi Calm Calm - N/A   Clear
8:15 AM 32.0 °F - 24.8 °F 75% 30.06 in 10.0 mi Calm Calm - N/A   Clear
8:35 AM 35.6 °F 32.8 °F 26.6 °F 70% 30.05 in 10.0 mi SW 3.5 mph - N/A   Clear
8:55 AM 42.8 °F 38.6 °F 26.6 °F 53% 30.05 in 10.0 mi SW 6.9 mph - N/A   Clear
9:15 AM 44.6 °F 39.2 °F 26.6 °F 49% 30.05 in 10.0 mi SW 10.4 mph - N/A   Clear
9:35 AM 46.4 °F 39.5 °F 26.6 °F 46% 30.04 in 10.0 mi SW 17.3 mph - N/A   Clear
9:55 AM 50.0 °F - 26.6 °F 40% 30.04 in 10.0 mi SW 15.0 mph 20.7 mph N/A   Clear
10:15 AM 51.8 °F - 26.6 °F 38% 30.03 in 10.0 mi SW 17.3 mph 23.0 mph N/A   Clear
10:35 AM 53.6 °F - 26.6 °F 35% 30.02 in 10.0 mi WSW 18.4 mph 26.5 mph N/A   Clear
10:55 AM 55.4 °F - 26.6 °F 33% 30.01 in 10.0 mi SW 17.3 mph 24.2 mph N/A   Clear
11:15 AM 59.0 °F - 26.6 °F 29% 30.00 in 10.0 mi SW 17.3 mph 23.0 mph N/A   Clear
11:35 AM 60.8 °F - 26.6 °F 27% 29.98 in 10.0 mi SW 16.1 mph 23.0 mph N/A   Clear
11:55 AM 64.4 °F - 24.8 °F 22% 29.96 in 10.0 mi SW 20.7 mph 24.2 mph N/A   Clear
12:15 PM 66.2 °F - 23.0 °F 19% 29.94 in 10.0 mi SSW 21.9 mph 26.5 mph N/A   Clear
12:35 PM 68.0 °F - 21.2 °F 17% 29.92 in 10.0 mi SW 19.6 mph 31.1 mph N/A   Clear
12:55 PM 69.8 °F - 21.2 °F 16% 29.90 in 10.0 mi SSW 26.5 mph 31.1 mph N/A   Clear
1:15 PM 71.6 °F - 21.2 °F 15% 29.88 in 10.0 mi SW 24.2 mph 32.2 mph N/A   Clear
1:35 PM 71.6 °F - 19.4 °F 14% 29.86 in 10.0 mi SW 28.8 mph 40.3 mph N/A   Clear
1:55 PM 73.4 °F - 19.4 °F 13% 29.85 in 10.0 mi SW 29.9 mph 38.0 mph N/A   Clear
2:15 PM 73.4 °F - 19.4 °F 13% 29.84 in 10.0 mi SW 24.2 mph 34.5 mph N/A   Clear
2:35 PM 73.4 °F - 19.4 °F 13% 29.84 in 10.0 mi SW 23.0 mph 38.0 mph N/A   Clear
2:55 PM 71.6 °F - 17.6 °F 13% 29.82 in 10.0 mi SW 27.6 mph 36.8 mph N/A   Clear
3:15 PM 71.6 °F - 17.6 °F 13% 29.81 in 10.0 mi SW 25.3 mph 36.8 mph N/A   Clear
3:35 PM 71.6 °F - 17.6 °F 13% 29.80 in 10.0 mi SW 21.9 mph 34.5 mph N/A   Clear
3:55 PM 71.6 °F - 17.6 °F 13% 29.80 in 10.0 mi SSW 19.6 mph 33.4 mph N/A   Clear
4:15 PM 71.6 °F - 17.6 °F 13% 29.80 in 10.0 mi SSW 20.7 mph 25.3 mph N/A   Clear
4:35 PM 68.0 °F - 17.6 °F 15% 29.80 in 10.0 mi SSW 18.4 mph 25.3 mph N/A   Clear
4:55 PM 68.0 °F - 19.4 °F 16% 29.79 in 10.0 mi SSW 17.3 mph 24.2 mph N/A   Clear
5:15 PM 66.2 °F - 19.4 °F 17% 29.79 in 10.0 mi SSW 15.0 mph 20.7 mph N/A   Clear
5:35 PM 64.4 °F - 19.4 °F 18% 29.79 in 10.0 mi SSW 16.1 mph 24.2 mph N/A   Clear
5:55 PM 62.6 °F - 19.4 °F 19% 29.79 in 10.0 mi SSW 10.4 mph - N/A   Clear
6:15 PM 60.8 °F - 21.2 °F 22% 29.78 in 10.0 mi SSW 17.3 mph - N/A   Clear
6:35 PM 60.8 °F - 23.0 °F 23% 29.78 in 10.0 mi SSW 12.7 mph - N/A   Clear
6:55 PM 59.0 °F - 23.0 °F 25% 29.78 in 10.0 mi SSW 16.1 mph - N/A   Clear
7:15 PM 59.0 °F - 23.0 °F 25% 29.77 in 10.0 mi SSW 16.1 mph - N/A   Clear
7:35 PM 59.0 °F - 23.0 °F 25% 29.77 in 10.0 mi SSW 17.3 mph 23.0 mph N/A   Clear
7:55 PM 59.0 °F - 23.0 °F 25% 29.77 in 10.0 mi SSW 17.3 mph 23.0 mph N/A   Clear
8:15 PM 59.0 °F - 23.0 °F 25% 29.77 in 10.0 mi SSW 17.3 mph - N/A   Clear
8:35 PM 59.0 °F - 23.0 °F 25% 29.76 in 10.0 mi SSW 18.4 mph 24.2 mph N/A   Clear
8:55 PM 57.2 °F - 23.0 °F 27% 29.76 in 10.0 mi SSW 15.0 mph 21.9 mph N/A   Clear
9:15 PM 55.4 °F - 23.0 °F 29% 29.76 in 10.0 mi SSW 17.3 mph 24.2 mph N/A   Clear
9:35 PM 55.4 °F - 23.0 °F 29% 29.75 in 10.0 mi SSW 19.6 mph 24.2 mph N/A   Clear
9:55 PM 53.6 °F - 23.0 °F 30% 29.75 in 10.0 mi SSW 16.1 mph - N/A   Clear
10:15 PM 53.6 °F - 23.0 °F 30% 29.75 in 10.0 mi SW 16.1 mph - N/A   Clear
10:35 PM 51.8 °F - 23.0 °F 33% 29.75 in 10.0 mi WSW 11.5 mph - N/A   Clear
10:55 PM 51.8 °F - 23.0 °F 33% 29.74 in 10.0 mi SW 15.0 mph - N/A   Clear
11:15 PM 51.8 °F - 23.0 °F 33% 29.73 in 10.0 mi SW 16.1 mph - N/A   Clear
11:35 PM 51.8 °F - 23.0 °F 33% 29.73 in 10.0 mi SW 15.0 mph 21.9 mph N/A   Clear
11:55 PM 50.0 °F - 23.0 °F 35% 29.72 in 10.0 mi SW 16.1 mph 20.7 mph N/A   Clear